Home   Weather   Woodstock   Past weeks
Flag for USA

Past Weather in Woodstock, New York, USA — Yesterday and Last 2 Weeks

Now
76 °F

Sunny.


Feels Like: 78 °F
Forecast: 72 / 62 °F
Wind: 3 mph from Northeast

Location: Dutchess County Airport

Current Time: Jul 23, 2019 at 6:55:42 pm

Latest Report: Jul 23, 2019 at 5:53 pm


Visibility: 10 mi

Pressure: 29.85 "Hg

Humidity: 52%

Dew Point: 57 °F

Location of WoodstockLocation

Past Weather in Woodstock — Graph

°F

Woodstock Temperature Yesterday

Maximum temperature yesterday: 84 °F (at 12:53 pm)
Minimum temperature yesterday: 66 °F (at 11:18 pm)
Average temperature yesterday: 71 °F

High & Low Weather Summary for the Past Weeks

 TemperatureHumidityPressure
High97 °F (Jul 21, 2:53 pm)97% (Jul 9, 7:05 am)30.07 "Hg (Jul 9, 7:05 am)
Low58 °F (Jul 15, 5:53 am)29% (Jul 14, 3:53 pm)29.67 "Hg (Jul 12, 4:53 am)
Average76 °F73%29.87 "Hg
* Reported Jul 8 4:53 pm — Jul 23 4:53 pm, Woodstock. Weather by CustomWeather, © 2019

Note: Actual official high and low records may vary slightly from our data, if they occured in-between our weather recording intervals... More about our weather records

Advertising

Woodstock Weather History for the Previous 24 Hours

Scroll right to see more
 ConditionsComfort  
Time TempWeatherWind HumidityBarometerVisibility
4:53 pm
Tue, Jul 23
77 °FScattered clouds.5 mph52%29.86 "Hg10 mi
3:53 pm77 °FMore clouds than sun.8 mph58%29.86 "Hg10 mi
2:55 pm75 °FBroken clouds.6 mph64%29.86 "Hg10 mi
1:53 pm74 °FCloudy.8 mph67%29.84 "Hg10 mi
1:34 pm74 °FMore clouds than sun.7 mph69%29.85 "Hg10 mi
1:18 pm72 °FMostly cloudy.9 mph73%29.84 "Hg10 mi
12:53 pm71 °FMostly cloudy.9 mph76%29.83 "Hg10 mi
11:53 am70 °FOvercast.12 mph79%29.83 "Hg10 mi
11:10 am68 °FMostly cloudy.7 mph87%29.84 "Hg10 mi
10:53 am67 °FFog.10 mph90%29.83 "Hg5 mi
9:53 am68 °FMostly cloudy.10 mph87%29.81 "Hg10 mi
8:53 am67 °FCloudy.9 mph90%29.78 "Hg10 mi
8:08 am66 °FBroken clouds.6 mph90%29.79 "Hg10 mi
7:53 am66 °FBroken clouds.7 mph90%29.76 "Hg10 mi
6:53 am65 °FLight rain. Mostly cloudy.7 mph94%29.76 "Hg8 mi
5:53 am65 °FLight rain. Mostly cloudy.7 mph94%29.76 "Hg9 mi
5:33 am65 °FMostly cloudy.6 mph94%29.77 "Hg10 mi
5:22 am65 °FLight rain. Overcast.5 mph94%29.77 "Hg10 mi
5:01 am65 °FLight rain. Fog.8 mph94%29.77 "Hg6 mi
4:05 am65 °FLight rain. Low clouds.3 mph94%29.77 "Hg10 mi
3:53 am65 °FLight rain. Overcast.No wind94%29.75 "Hg9 mi
3:06 am65 °FLight rain. Fog.3 mph94%29.77 "Hg6 mi
2:53 am65 °FRain. Fog.7 mph94%29.75 "Hg3 mi
1:53 am65 °FLight rain. Fog.9 mph94%29.75 "Hg5 mi
1:26 am66 °FRain. Fog.6 mph93%29.78 "Hg5 mi
12:53 am66 °FRain. Fog.6 mph93%29.77 "Hg3 mi
12:31 am66 °FLight rain. Fog.6 mph93%29.78 "Hg4 mi
11:53 pm
Mon, Jul 22
66 °FMostly cloudy.8 mph93%29.76 "Hg10 mi
11:18 pm66 °FLight rain. Mostly cloudy.6 mph93%29.77 "Hg10 mi
10:53 pm67 °FLight rain. Fog.5 mph90%29.77 "Hg6 mi
10:00 pm67 °FLight rain. Low clouds.7 mph93%29.77 "Hg10 mi
8:53 pm67 °FLight rain. Fog.3 mph93%29.74 "Hg2 mi
7:53 pm67 °FRain. Fog.5 mph93%29.75 "Hg2 mi
7:22 pm67 °FLight rain. Fog.6 mph93%29.75 "Hg2 mi
7:15 pm67 °FLight rain. Fog.7 mph93%29.74 "Hg5 mi
7:00 pm67 °FRain. Fog.7 mph93%29.74 "Hg4 mi
6:23 pm68 °FRain. Fog.6 mph93%29.75 "Hg2 mi
6:08 pm68 °FThunderstorms. Fog.6 mph93%29.76 "Hg2 mi
Weather by CustomWeather, © 2019

See weather overview